SCP
0 0 0 0 0 0 0 0 0 0 0 0 0 0 0 0 0 0 0 0 0 0 0 0 0 0 0 0 0 0 0 0 0 0 0 0 0 0 0 0 0 0 0 0 0 0 0 0 0
0 0 0 0 0 0 0 0 0 0 0 0 0 0 0 0 0 0 0 0 0 0 0 0 0 0 0 0 0 0 0 0 0 0 0 0 0 0 0 0 0 0 0 0 0 0 0 0 0
0 0 0 0 0 0 0 0 0 0 0 0 0 0 0 0 0 0 0 0 0 0 0 0 0 0 0 0 0 0 0 0 0 0 0 0 0 0 0 0 0 0 0 0 0 0 0 0 0
0 0 0 0 0 0 0 0 0 0 0 0 0 0 0 0 0 0 0 0 0 0 0 0 0 0 0 0 0 0 0 0 0 0 0 0 0 0 0 0 0 0 0 0 0 0 0 0 0
0 0 0 0 0 0 0 0 0 0 0 0 0 0 0 0 0 0 0 0 0 0 0 0 0 0 0 0 0 0 0 0 0 0 0 0 0 0 0 0 0 0 0 0 0 0 0 0 0
0 0 0 0 0 0 0 0 0 0 0 0 0 0 0 0 0 0 0 0 0 0 0 0 0 0 0 0 0 0 0 0 0 0 0 0 0 0 0 0 0 0 0 0 0 0 0 0 0
0 0 0 0 0 0 0 0 0 0 0 0 0 0 0 0 0 0 0 0 0 0 0 0 0 0 0 0 0 0 0 0 0 0 0 0 0 0 0 0 0 0 0 0 0 0 0 0 0
0 0 0 0 0 0 0 0 0 0 0 0 0 0 0 0 0 0 0 0 0 0 0 0 0 0 0 0 0 0 0 0 0 0 0 0 0 0 0 0 0 0 0 0 0 0 0 0 0
0 0 0 0 0 0 0 0 0 0 0 0 0 0 0 0 0 0 0 0 0 0 0 0 0 0 0 0 0 0 0 0 0 0 0 0 0 0 0 0 0 0 0 0 0 0 0 0 0
0 0 0 0 0 0 0 0 0 0 0 0 0 0 0 0 0 0 0 0 0 0 0 0 0 0 0 0 0 0 0 0 0 0 0 0 0 0 0 0 0 0 0 0 0 0 0 0 0
0 0 0 0 0 0 0 0 0 0 0 0 0 0 0 0 0 0 0 0 0 0 0 0 0 0 0 0 0 0 0 0 0 0 0 0 0 0 0 0 0 0 0 0 0 0 0 0 0
0 0 0 0 0 0 0 0 0 0 0 0 0 0 0 0 0 0 0 0 0 0 0 0 0 0 0 0 0 0 0 0 0 0 0 0 0 0 0 0 0 0 0 0 0 0 0 0 0
0 0 0 0 0 0 0 0 0 0 0 0 0 0 0 0 0 0 0 0 0 0 0 0 0 0 0 0 0 0 0 0 0 0 0 0 0 0 0 0 0 0 0 0 0 0 0 0 0
0 0 0 0 0 0 0 0 0 0 0 0 0 0 0 0 0 0 0 0 0 0 0 0 0 0 0 0 0 0 0 0 0 0 0 0 0 0 0 0 0 0 0 0 0 0 0 0 0
0 0 0 0 0 0 0 0 0 0 0 0 0 0 0 0 0 0 0 0 0 0 0 0 0 0 0 0 0 0 0 0 0 0 0 0 0 0 0 0 0 0 0 0 0 0 0 0 0
0 0 0 0 0 0 0 0 0 0 0 0 0 0 0 0 0 0 0 0 0 0 0 0 0 0 0 0 0 0 0 0 0 0 0 0 0 0 0 0 0 0 0 0 0 0 0 0 0
0 0 0 0 0 0 0 0 0 0 0 0 0 0 0 0 0 0 0 0 0 0 0 0 0 0 0 0 0 0 0 0 0 0 0 0 0 0 0 0 0 0 0 0 0 0 0 0 0
0 0 0 0 0 0 0 0 0 0 0 0 0 0 0 0 0 0 0 0 0 0 0 0 0 0 0 0 0 0 0 0 0 0 0 0 0 0 0 0 0 0 0 0 0 0 0 0 0
0 0 0 0 0 0 0 0 0 0 0 0 0 0 0 0 0 0 0 0 0 0 0 0 0 0 0 0 0 0 0 0 0 0 0 0 0 0 0 0 0 0 0 0 0 0 0 0 0
0 0 0 0 0 0 0 0 0 0 0 0 0 0 0 0 0 0 0 0 0 0 0 0 0 0 0 0 0 0 0 0 0 0 0 0 0 0 0 0 0 0 0 0 0 0 0 0 0
0 0 0 0 0 0 0 0 0 0 0 0 0 0 0 0 0 0 0 0 0 0 0 0 0 0 0 0 0 0 0 0 0 0 0 0 0 0 0 0 0 0 0 0 0 0 0 0 0
0 0 0 0 0 0 0 0 0 0 0 0 0 0 0 0 0 0 0 0 0 0 0 0 0 0 0 0 0 0 0 0 0 0 0 0 0 0 0 0 0 0 0 0 0 0 0 0 0
0 0 0 0 0 0 0 0 0 0 0 0 0 0 0 0 0 0 0 0 0 0 0 0 0 0 0 0 0 0 0 0 0 0 0 0 0 0 0 0 0 0 0 0 0 0 0 0 0
0 0 0 0 0 0 0 0 0 0 0 0 0 0 0 0 0 0 0 0 0 0 0 0 0 0 0 0 0 0 0 0 0 0 0 0 0 0 0 0 0 0 0 0 0 0 0 0 0
0 0 0 0 0 0 0 0 0 0 0 0 0 0 0 0 0 0 0 0 0 0 0 0 0 0 0 0 0 0 0 0 0 0 0 0 0 0 0 0 0 0 0 0 0 0 0 0 0
0 0 0 0 0 0 0 0 0 0 0 0 0 0 0 0 0 1 0 0 0 0 0 0 0 0 0 0 0 0 0 0 0 0 0 0 0 0 0 0 0 0 0 0 0 0 0 0 0
0 0 0 0 0 0 0 0 0 0 0 0 0 0 0 0 1 1 1 0 0 0 0 0 0 0 0 0 0 0 0 0 0 0 0 0 0 0 0 0 0 0 0 0 0 0 0 0 0
0 0 0 0 0 0 0 0 0 0 0 0 0 0 0 0 1 1 0 0 0 0 0 0 0 0 0 0 0 0 0 0 0 0 0 0 0 0 0 0 0 0 0 0 0 0 0 0 0
0 0 0 0 0 0 0 0 0 0 0 0 0 0 0 0 0 0 0 0 0 0 0 0 0 0 0 0 0 0 0 0 0 0 0 0 0 0 0 0 0 0 0 0 0 0 0 0 0
0 0 0 0 0 0 0 0 0 0 0 0 0 0 0 0 0 0 0 0 0 0 0 0 0 0 0 0 0 0 0 0 0 0 0 0 0 0 0 0 0 0 0 0 0 0 0 0 0
Wind_Speed
8 7 3 1 1 2 2 1 3 5 5 6 9 9 8 6 3 2 1 6 6 5 4 6 7 7 9 9 9 9 10 10 10 10 10 10 9 9 8 8 8 8 8 8 8 8 7 7 7
6 5 2 0 2 2 2 1 6 6 7 9 10 10 8 6 5 6 3 5 7 6 4 6 8 9 10 10 9 10 10 10 10 10 10 10 9 9 8 8 7 7 7 7 7 7 6 7 7
6 5 1 1 0 1 1 1 5 7 7 7 7 6 6 4 4 4 5 7 6 4 4 6 10 9 10 10 9 9 10 9 9 9 9 10 9 8 8 7 6 6 7 7 7 7 6 7 7
2 1 1 1 2 2 2 2 5 9 8 7 8 6 4 4 4 6 9 8 7 4 4 6 10 10 9 9 9 9 9 9 8 8 9 10 9 8 7 7 6 6 6 6 6 6 7 7 8
1 2 3 2 2 1 1 2 6 8 6 8 10 7 4 3 9 10 9 8 7 4 3 5 9 9 9 9 9 9 9 8 8 9 9 9 8 8 7 7 6 6 6 6 6 6 7 7 8
2 2 2 2 3 2 2 4 8 10 10 9 9 7 3 4 8 8 8 7 6 6 4 4 8 8 8 8 8 8 8 8 9 9 9 8 8 7 6 6 6 6 6 6 6 6 7 7 8
2 2 1 1 1 1 2 3 7 8 8 5 7 6 3 3 5 7 7 7 6 5 4 3 3 4 6 6 7 7 8 8 8 8 7 7 7 6 5 5 5 6 6 6 6 6 7 7 7
3 2 1 1 1 0 1 4 5 8 7 7 5 7 4 4 5 6 7 7 5 4 3 3 2 2 2 3 6 8 8 8 7 6 6 6 5 5 4 3 4 5 5 5 5 5 6 6 6
2 1 2 3 3 1 2 5 4 6 8 6 5 6 7 9 8 7 7 5 5 4 2 2 2 1 1 2 5 6 7 6 5 5 5 4 2 2 2 2 3 4 4 4 5 5 5 5 5
4 2 5 4 4 3 3 5 6 6 8 7 7 8 9 8 8 7 6 5 4 3 2 2 2 2 2 2 2 2 3 2 2 2 2 1 1 1 2 2 2 2 2 3 3 3 3 2 2
4 5 5 3 2 3 3 3 5 8 6 7 10 10 9 8 7 6 5 5 4 4 3 2 2 3 3 2 2 2 1 2 2 2 2 2 2 1 1 0 0 0 1 0 0 0 0 1 1
3 5 4 2 1 3 4 4 4 5 7 9 11 11 9 8 6 6 5 4 4 4 3 3 2 2 2 2 2 2 2 2 2 2 2 2 2 1 1 0 0 0 0 1 1 1 1 1 1
1 3 1 1 2 3 5 6 6 5 9 11 12 10 8 7 6 5 5 5 5 5 4 3 3 3 2 3 2 3 2 2 2 2 2 3 2 2 1 1 1 1 1 1 1 1 1 1 0
2 2 3 1 1 4 6 4 5 5 9 10 10 8 7 7 7 6 5 5 4 4 4 3 3 3 4 3 3 2 2 2 2 2 2 2 2 2 1 1 1 0 0 1 1 1 1 1 1
2 3 5 2 2 3 7 5 3 6 9 9 9 8 8 7 7 7 6 5 5 4 3 4 4 3 3 3 3 3 3 3 2 2 2 2 2 2 2 2 1 0 0 1 1 2 2 1 1
4 4 3 4 1 2 6 2 3 6 9 8 8 8 7 6 7 7 6 5 5 5 4 3 4 4 3 3 3 2 2 3 2 2 2 2 2 2 2 2 1 0 1 1 2 2 2 1 1
4 2 3 5 2 2 4 3 4 6 9 8 8 7 7 6 5 7 7 6 5 5 5 4 4 4 3 3 2 3 2 2 2 2 2 2 2 2 2 1 1 1 1 1 1 1 1 1 0
4 3 4 4 3 2 2 4 5 7 9 9 8 7 7 7 6 6 7 7 6 5 5 4 3 3 3 3 3 2 3 2 1 1 1 2 1 2 2 1 1 2 2 1 1 1 1 1 0
6 5 5 6 4 2 3 5 6 6 8 8 7 8 8 7 6 6 7 7 6 5 4 4 3 2 3 2 2 1 1 1 1 1 1 1 1 1 2 1 1 1 2 1 1 1 1 1 1
4 4 4 4 4 1 2 2 3 5 8 10 10 9 9 7 5 5 6 6 6 6 4 4 3 3 2 2 1 1 1 0 1 1 1 1 1 1 2 2 1 1 1 1 1 1 1 1 1
4 5 5 4 2 2 3 3 3 2 3 5 8 9 10 11 10 8 7 5 6 6 5 4 3 3 3 2 2 2 2 2 2 1 0 0 1 1 1 2 1 1 1 1 0 1 1 0 1
5 5 6 5 2 1 2 1 5 4 2 3 5 7 8 9 9 8 7 7 7 6 6 5 4 3 2 3 3 3 2 1 1 1 0 0 0 1 1 1 1 1 1 1 0 1 1 2 0
6 4 3 5 4 2 1 2 6 2 3 5 6 7 8 9 11 10 9 9 8 7 6 5 4 3 3 3 3 3 2 1 0 1 1 1 1 1 1 1 1 1 1 1 1 1 1 1 1
3 3 4 5 5 2 2 3 5 4 7 6 6 6 7 9 10 10 9 8 7 6 5 5 4 3 3 3 3 3 3 2 2 2 1 1 1 1 1 1 1 1 1 0 0 1 1 1 1
2 5 4 6 5 4 3 1 7 7 6 7 8 8 8 9 9 9 9 9 8 7 6 6 5 4 3 3 3 2 2 2 2 2 1 1 0 1 1 1 0 0 0 1 1 1 1 1 1
2 7 6 4 3 3 3 3 6 5 4 4 7 8 7 9 9 9 10 9 9 8 7 6 6 4 4 3 3 2 2 2 1 1 1 1 1 1 1 0 0 0 1 1 1 1 1 1 1
1 1 6 7 1 0 3 4 6 1 3 4 5 6 6 9 9 9 8 8 8 8 7 8 7 5 4 4 3 2 2 2 1 1 1 0 0 0 1 0 1 0 1 1 1 1 1 1 1
5 6 6 5 4 1 4 4 4 4 4 4 5 6 6 8 9 8 8 8 7 7 7 7 7 6 5 4 3 3 2 2 1 1 1 0 0 1 1 1 1 1 1 1 1 1 1 1 1
0 2 5 4 5 6 3 7 7 9 7 8 8 8 9 9 9 9 8 7 6 5 5 5 6 5 4 4 3 3 2 1 1 1 0 0 0 0 0 0 1 1 1 1 1 1 1 1 1
4 4 6 5 3 4 4 8 5 7 7 7 7 8 8 7 7 8 7 6 5 5 4 5 5 4 4 3 3 2 2 1 1 0 0 0 1 1 1 1 1 1 1 0 1 0 0 0 0
Wind_Direction
172 164 162 191 34 29 312 302 93 67 58 64 79 87 87 74 92 135 183 153 154 165 178 166 152 145 149 149 146 146 149 147 146 146 146 146 147 148 147 146 147 152 154 156 164 169 172 171 169
166 171 187 233 65 40 309 62 83 97 123 109 86 83 78 72 86 110 126 154 152 160 167 157 148 139 136 140 140 140 142 145 146 148 149 150 151 150 150 151 152 157 162 165 170 176 177 174 176
185 195 207 37 62 174 220 111 105 102 102 100 90 67 71 91 101 122 154 146 138 143 158 158 145 140 138 137 137 140 142 147 150 153 154 153 154 154 156 160 164 167 171 176 179 183 184 183 184
175 153 14 12 303 237 172 163 117 99 80 78 94 69 57 80 114 128 134 133 130 135 156 152 142 141 142 141 142 142 145 148 150 151 153 154 158 161 164 170 175 179 183 188 189 191 192 193 192
96 58 15 336 313 295 127 142 113 102 88 89 94 96 76 57 104 119 132 136 133 138 155 152 144 145 146 146 147 148 149 150 148 147 151 153 162 168 173 181 185 187 192 195 198 199 202 201 201
68 69 37 346 336 340 57 93 98 98 106 105 101 104 81 99 114 126 133 134 135 141 150 152 149 145 146 148 151 153 153 150 144 145 149 156 166 174 177 186 190 192 194 198 204 210 213 210 210
137 119 213 228 287 22 77 88 105 110 111 113 119 99 103 100 128 125 123 124 119 125 135 133 141 146 148 150 154 157 156 153 148 147 154 159 169 175 179 190 197 195 198 201 210 217 218 216 215
169 117 276 232 155 308 88 76 97 105 103 118 109 118 147 158 133 110 104 107 108 107 117 121 118 120 145 157 156 156 156 150 144 144 143 145 156 168 181 198 202 201 203 209 214 221 221 215 213
142 82 246 214 177 207 135 103 89 84 95 85 85 118 145 140 117 99 89 84 87 90 85 105 113 112 114 129 144 149 146 143 142 135 131 133 132 143 182 199 196 200 210 215 216 222 218 210 202
154 184 237 219 186 180 157 125 126 103 97 92 95 105 121 123 112 109 108 105 100 102 101 101 118 121 112 121 112 114 124 124 121 110 119 112 109 126 138 176 171 181 206 220 218 221 210 199 177
185 206 246 259 202 161 128 116 117 121 122 144 141 136 131 120 115 115 116 120 125 128 114 106 116 117 121 121 114 112 114 112 115 111 110 110 101 103 90 93 103 183 174 320 260 241 101 130 168
208 247 259 279 134 121 131 122 107 124 145 147 144 140 134 130 133 134 128 119 114 112 111 109 116 107 115 119 119 123 124 124 125 124 116 110 100 86 90 102 22 31 39 56 55 83 78 112 167
267 270 280 224 151 127 116 120 118 120 126 129 131 129 129 129 134 134 129 122 114 112 107 106 101 91 98 105 106 108 125 130 127 114 101 105 107 107 110 116 94 61 62 89 78 77 81 68 111
277 290 304 297 130 118 117 101 99 132 129 129 131 133 134 133 133 124 119 120 115 121 122 110 96 88 92 98 98 104 113 113 112 106 108 113 112 116 113 96 81 79 169 138 125 112 107 96 101
314 334 329 336 111 131 102 67 111 148 132 135 140 142 138 134 129 133 142 141 136 132 124 117 115 88 88 94 98 98 99 107 109 106 108 114 112 111 111 106 92 102 140 122 98 81 85 105 110
2 14 342 302 150 158 110 136 184 157 137 149 151 147 143 145 141 139 143 137 134 128 124 118 111 93 83 81 80 77 85 100 104 110 107 114 116 116 118 107 107 159 94 101 104 99 90 92 110
11 349 294 294 260 153 118 174 195 168 148 159 158 156 149 147 149 148 150 142 137 133 129 117 107 101 90 77 76 72 75 91 99 100 97 105 114 115 113 97 87 99 92 76 86 90 119 121 88
248 238 260 265 262 123 140 181 189 180 162 167 163 163 159 157 168 160 153 145 140 135 127 121 110 102 96 82 70 61 55 62 80 100 114 123 124 121 114 94 50 61 71 45 51 74 73 149 183
214 229 241 256 248 164 185 185 196 177 164 172 172 169 168 176 175 159 154 145 140 134 124 123 117 116 105 99 93 83 63 53 69 89 100 111 107 106 111 108 78 74 87 92 78 71 49 17 42
220 224 237 262 268 168 150 216 218 188 178 177 178 178 176 172 168 165 165 160 151 145 140 134 138 137 130 141 144 140 143 157 141 110 74 94 101 100 115 118 115 103 88 61 49 70 47 358 44
248 212 218 218 305 27 96 342 301 251 195 183 181 176 176 176 173 173 171 163 148 147 148 142 148 141 142 131 113 101 62 37 32 28 11 16 144 140 106 122 125 114 106 106 55 91 100 29 353
259 243 201 189 159 264 128 230 274 227 222 191 185 183 186 183 171 165 157 157 158 160 154 145 143 144 145 128 126 131 132 147 206 199 174 7 31 70 92 105 114 103 88 89 34 98 116 120 19
233 249 180 166 151 108 38 138 275 226 214 225 207 193 188 183 170 164 164 166 167 164 160 156 145 146 140 123 128 130 131 153 126 82 60 28 19 41 61 76 100 103 90 93 64 66 81 101 117
207 37 36 54 69 39 251 160 262 226 211 212 204 188 180 170 166 167 167 161 163 165 161 156 146 147 144 131 128 131 134 121 99 83 85 38 11 11 13 61 85 109 92 79 123 99 80 79 88
64 76 27 3 11 270 279 163 242 230 213 199 193 184 172 166 163 164 163 163 165 168 168 160 153 154 154 143 142 145 141 129 135 149 152 132 39 1 325 5 59 92 114 98 90 85 62 63 79
220 139 155 192 226 279 323 253 263 246 214 199 175 168 161 166 166 168 169 170 169 167 165 161 161 163 163 154 161 143 133 133 135 151 158 178 205 237 285 310 59 116 103 86 86 71 55 70 69
166 150 157 134 148 25 292 293 306 305 147 152 150 151 164 165 168 168 167 168 169 169 170 168 167 167 172 168 154 139 138 135 143 155 144 185 272 273 325 343 69 77 78 79 90 70 32 61 54
157 145 90 109 140 220 283 267 235 225 200 169 172 175 173 163 163 167 172 170 172 175 173 168 168 172 176 174 169 155 161 168 170 144 149 150 337 358 28 33 57 64 64 68 70 39 9 47 16
68 86 108 125 152 158 225 264 222 202 201 189 186 182 171 166 168 169 168 169 167 166 167 164 167 167 171 172 171 165 169 163 135 130 184 175 82 60 57 90 111 91 68 53 66 42 39 47 16
170 177 145 150 219 168 177 262 258 197 195 182 180 174 164 157 160 158 156 152 149 151 155 160 163 167 174 164 158 155 145 120 93 16 267 125 80 40 49 71 101 86 54 59 100 91 342 160 199